[[{"header":{"parameterUnit":"m.s-1","parameterCategory":1,"la1":30.2991,"la2":30.254,"lo1":-89.0895,"lo2":-89.0444,"dy":0.0017,"dx":0.0017,"nx":28,"ny":28,"refTime":"2024-06-21T09:00:00:Z","depth":0,"parameterNumber":2,"parameterNumberName":"U-component_of_WINDS"},"data":[0,0,0,0,0,0,0,0,0,0,0,0,0,0,0,0,0,0,0,0,0,0,0,0,0,0,0,0,0,0,0,0,0,0,0,0,0,0,0,0,0,0,0,0,0,0,0,0,0,0,0,0,0,0,0,0,0,0,1.9245,1.9245,0,1.9311,1.9312,1.9313,1.9298,1.9297,1.9296,1.9294,1.9362,1.9365,1.9368,0,0,0,0,0,0,0,0,0,0,0,0,0,1.9102,1.9104,1.9244,1.9245,1.9246,1.9311,1.9312,1.9313,1.9298,1.9297,1.9295,1.9294,1.9361,1.9365,1.9368,0,0,0,0,0,0,0,0,0,0,0,0,0,1.9166,1.9105,1.9244,1.9247,1.9247,1.9311,1.9312,1.9313,1.9299,1.9297,1.9295,1.9293,1.936,1.9364,1.9369,1.9434,0,0,1.9382,1.9384,0,0,0,0,0,0,0,0,1.9162,1.9171,1.9245,1.9247,1.9248,1.9294,1.9287,1.9354,1.9299,1.9279,1.9294,1.9292,1.9341,1.9347,1.9364,1.9437,1.944,1.9383,1.9385,1.9387,1.9389,0,0,0,0,0,0,0,1.9158,1.9168,1.9271,1.9247,1.9248,1.9244,1.9251,1.9299,1.932,1.9281,1.928,1.9288,1.9341,1.9359,1.9365,1.9441,1.9383,1.9387,1.9389,1.9391,1.9568,1.957,0,0,0,0,0,0,1.9152,1.9164,1.9269,1.9273,1.9199,1.9248,1.9256,1.9281,1.9319,1.9323,1.929,1.9287,1.9353,1.936,1.9367,1.9444,1.9387,1.9391,1.9394,1.9566,1.9569,1.9571,0,0,0,0,0,0,1.9149,1.9162,1.9266,1.9218,1.9231,1.9252,1.9281,1.9284,1.9302,1.9326,1.9329,1.9304,1.9351,1.9361,1.9417,1.9446,1.9393,1.9398,1.9564,1.9567,1.957,1.9599,0,0,0,0,0,0,1.9145,1.9161,1.9187,1.9219,1.9234,1.9315,1.9283,1.9286,1.9309,1.9307,1.9341,1.9344,1.9351,1.941,1.9421,1.9451,1.9401,1.9561,1.9565,1.9569,1.9596,1.9603,1.9609,0,0,0,0,0,1.914,1.9192,1.9188,1.9201,1.9266,1.9317,1.9325,1.9332,1.9312,1.9337,1.9352,1.9343,1.9442,1.9416,1.9428,1.946,1.956,1.9564,1.9569,1.9593,1.9601,1.9609,0,0,0,0,0,0,1.9163,1.9197,1.9192,1.9256,1.9284,1.9314,1.9346,1.9341,1.9375,1.9371,1.9377,1.9385,1.9441,1.9457,1.9428,1.9524,1.9498,1.9505,1.9512,1.952,1.9527,1.9521,1.9405,0,0,0,0,0,1.9175,1.9214,1.9241,1.9295,1.9309,1.9326,1.9348,1.935,1.9379,1.939,1.941,1.9437,1.9474,1.9498,1.9534,1.9598,1.9604,1.9626,1.9633,1.9638,1.9644,1.9676,1.9686,1.9586,1.9586,1.9586,0,0,1.9201,1.9225,1.9249,1.93,1.9322,1.9361,1.9335,1.9378,1.9406,1.9397,1.945,1.9465,1.9496,1.9556,1.9583,1.9571,1.9673,1.9644,1.9648,1.9651,1.9682,1.9691,1.97,1.9589,1.9589,1.9588,0,0,1.9268,1.9291,1.9337,1.9359,1.9391,1.9402,1.9413,1.9444,1.9453,1.9507,1.95,1.9534,1.9598,1.9619,1.9639,1.9712,1.9704,1.9724,1.9758,1.979,1.9797,1.9804,1.9828,1.9837,1.973,1.973,1.973,0,1.9296,1.9354,1.9361,1.9404,1.9426,1.9419,1.9465,1.9486,1.9528,1.9543,1.9529,1.9607,1.9628,1.9691,1.9709,1.9726,1.9737,1.9719,1.9796,1.9803,1.9809,1.9832,1.9841,1.9732,1.9731,1.9731,1.9731,0,1.9386,1.9426,1.946,1.95,1.9527,1.9571,1.9583,1.9609,1.9609,1.962,1.9673,1.9698,1.9737,1.9753,1.9754,1.9816,1.9807,1.9794,1.9767,1.9821,1.9842,1.9851,1.9734,1.9734,1.9733,1.9733,0,0,1.9468,1.9511,1.9523,1.954,1.9575,1.9606,1.965,1.9688,1.9708,1.9738,1.9773,1.9827,1.9815,1.9837,1.984,1.9869,1.9922,1.9852,1.9853,1.9862,1.9989,1.9997,2.0007,1.9918,1.992,1.9921,1.9986,0,1.9535,1.9612,1.9618,1.9686,1.9722,1.9716,1.9753,1.9778,1.979,1.9822,1.9835,1.9872,1.9855,1.9868,1.9895,1.991,1.9947,1.9905,1.9949,1.995,1.9939,2.0018,2.0027,2.0087,1.9994,1.9996,1.9997,0,1.9625,1.9656,1.9727,1.9756,1.9771,1.9805,1.9839,1.987,1.9898,1.9904,1.9928,1.9928,1.9971,1.9944,2.0002,1.9973,1.9992,2.0001,2.0004,2.0006,1.9975,2.0021,2.0106,2.0114,2.0011,2.0009,2.0009,0,1.9674,1.9734,1.9784,1.98,1.9835,1.9858,1.9873,1.9899,1.9921,1.9951,1.9965,2.0,2.0019,2.0046,2.0054,2.0034,2.0111,2.0085,2.0116,2.0116,2.0131,2.0129,2.0218,2.0147,2.0147,2.0146,2.0146,0,1.9747,1.9791,1.9806,1.9837,1.9885,1.9892,1.9939,1.9953,1.9976,2.0008,2.0005,2.0035,2.0045,2.0077,2.0084,2.013,2.0139,2.0144,2.0145,2.0143,2.0142,2.0153,2.0148,2.0149,2.0148,2.0148,2.0147,0,1.981,1.9822,1.9876,1.9904,1.9912,1.9946,1.997,1.9998,2.001,2.005,2.006,2.0077,2.0114,2.0125,2.017,2.0175,2.0228,2.0226,2.0218,2.0217,2.0246,2.0242,2.0344,2.0356,2.0279,2.028,2.028,0,1.9855,1.9888,1.9919,1.994,1.9957,1.9992,2.0014,2.0022,2.0045,2.0078,2.0102,2.0139,2.0168,2.0227,2.0243,2.0277,2.0274,2.0308,2.0279,2.0276,2.0272,2.0269,2.0271,2.0312,2.0313,2.0314,2.0314,0,1.9932,1.9936,1.9968,2.0002,2.0028,2.0056,2.0082,2.0099,2.0111,2.0137,2.0174,2.0197,2.0242,2.0277,2.0311,2.0326,2.0322,2.0323,2.0331,2.0329,2.0322,2.0323,2.023,2.032,2.032,2.0319,2.0319,2.0319,1.9985,2.0013,2.0039,2.0075,2.0095,2.0119,2.0147,2.0161,2.0193,2.0229,2.0233,2.0273,2.0298,2.0343,2.036,2.0391,2.0381,2.0394,2.0396,2.0399,2.04,2.0319,2.0397,2.0397,2.0397,2.0397,2.0397,0,2.006,2.0077,2.0109,2.0145,2.0172,2.0166,2.0194,2.0217,2.0252,2.0277,2.0305,2.0348,2.0382,2.04,2.0434,2.0455,2.0453,2.0463,2.0461,2.0464,2.0408,2.0396,2.0464,2.0464,2.0464,2.0464,2.0464,2.0464,2.0102,2.0149,2.0156,2.0212,2.0228,2.0267,2.0283,2.0305,2.0324,2.0371,2.0399,2.0411,2.0432,2.0468,2.0498,2.0503,2.0514,2.0525,2.0528,2.0475,2.0468,2.0461,2.045,2.0528,2.0528,2.058,2.0581,2.0581]},{"header":{"parameterUnit":"m.s-1","parameterCategory":1,"la1":30.2991,"la2":30.254,"lo1":-89.0895,"lo2":-89.0444,"dy":0.0017,"dx":0.0017,"nx":28,"ny":28,"refTime":"2024-06-21T09:00:00:Z","depth":0,"parameterNumber":3,"parameterNumberName":"V-component_of_WINDS"},"data":[0,0,0,0,0,0,0,0,0,0,0,0,0,0,0,0,0,0,0,0,0,0,0,0,0,0,0,0,0,0,0,0,0,0,0,0,0,0,0,0,0,0,0,0,0,0,0,0,0,0,0,0,0,0,0,0,0,0,3.2386,3.2386,0,3.2416,3.2417,3.2417,3.2358,3.2357,3.2355,3.2353,3.2381,3.2383,3.2386,0,0,0,0,0,0,0,0,0,0,0,0,0,3.2273,3.2276,3.2386,3.2386,3.2387,3.2416,3.2417,3.2417,3.2359,3.2356,3.2354,3.2352,3.238,3.2383,3.2386,0,0,0,0,0,0,0,0,0,0,0,0,0,3.2315,3.2276,3.2386,3.2361,3.2359,3.2416,3.2417,3.2417,3.2359,3.2356,3.2354,3.2351,3.2379,3.2383,3.2387,3.2468,0,0,3.2398,3.24,0,0,0,0,0,0,0,0,3.2312,3.2319,3.2364,3.2363,3.2361,3.2381,3.2387,3.2434,3.236,3.2359,3.2353,3.2349,3.2383,3.2386,3.2398,3.2469,3.247,3.2399,3.2401,3.2403,3.2404,0,0,0,0,0,0,0,3.231,3.2317,3.2398,3.2365,3.2363,3.2347,3.235,3.2396,3.2387,3.2359,3.2355,3.2359,3.2381,3.2395,3.2398,3.2471,3.2398,3.2402,3.2404,3.2406,3.2608,3.2611,0,0,0,0,0,0,3.231,3.2315,3.2397,3.2399,3.2329,3.2352,3.2355,3.2377,3.2386,3.2385,3.2362,3.2357,3.239,3.2394,3.2399,3.2494,3.2402,3.2406,3.2408,3.2605,3.2608,3.2612,0,0,0,0,0,0,3.2308,3.2318,3.2395,3.2356,3.2364,3.2357,3.2382,3.2379,3.2392,3.2388,3.2386,3.2377,3.2388,3.2394,3.2451,3.2494,3.2408,3.2411,3.2601,3.2606,3.261,3.2684,0,0,0,0,0,0,3.2305,3.2318,3.235,3.2357,3.2367,3.2448,3.2385,3.2382,3.24,3.2393,3.2402,3.2401,3.2386,3.2446,3.2455,3.2497,3.2414,3.2597,3.2603,3.2608,3.2677,3.269,3.2701,0,0,0,0,0,3.2301,3.2369,3.2352,3.2362,3.2407,3.2451,3.2456,3.2438,3.2403,3.2434,3.2431,3.2401,3.2488,3.2452,3.2462,3.2506,3.2594,3.2601,3.2608,3.2672,3.2688,3.2701,0,0,0,0,0,0,3.2366,3.2369,3.235,3.2422,3.2437,3.2441,3.248,3.2456,3.248,3.2472,3.2448,3.245,3.2512,3.2515,3.2475,3.2584,3.2535,3.2544,3.258,3.2595,3.2607,3.2604,3.2417,0,0,0,0,0,3.2389,3.2425,3.2426,3.249,3.2498,3.2488,3.2506,3.2491,3.2505,3.251,3.2511,3.2525,3.2555,3.2575,3.2603,3.2678,3.2678,3.2713,3.2725,3.2735,3.2743,3.2781,3.2796,3.2634,3.2634,3.2634,0,0,3.2436,3.2442,3.2467,3.2503,3.2512,3.2549,3.2493,3.2535,3.2562,3.2516,3.257,3.2571,3.2585,3.2651,3.268,3.2655,3.2788,3.2744,3.2752,3.2754,3.279,3.2805,3.2819,3.2639,3.2638,3.2637,0,0,3.254,3.255,3.2603,3.2614,3.2629,3.2621,3.2634,3.2642,3.2641,3.2695,3.2661,3.2692,3.2745,3.2755,3.2767,3.2875,3.2847,3.2885,3.2947,3.2984,3.2997,3.3008,3.3045,3.3059,3.2893,3.2893,3.2893,0,3.2597,3.2653,3.2633,3.2677,3.2693,3.2654,3.2707,3.2718,3.2741,3.2752,3.2724,3.2789,3.2795,3.2862,3.2889,3.29,3.2913,3.2883,3.2997,3.3008,3.3018,3.3053,3.3067,3.2897,3.2897,3.2896,3.2896,0,3.272,3.2759,3.28,3.2824,3.2845,3.2893,3.288,3.2903,3.2885,3.2881,3.2935,3.2941,3.2969,3.2984,3.2967,3.3048,3.3032,3.3001,3.2951,3.3038,3.3071,3.3084,3.2904,3.2902,3.2901,3.29,0,0,3.2866,3.2879,3.2894,3.2903,3.2917,3.2946,3.2992,3.3019,3.3039,3.3056,3.3093,3.3138,3.3109,3.3123,3.3107,3.314,3.3223,3.3105,3.3105,3.3126,3.3311,3.3334,3.335,3.3205,3.3208,3.321,3.331,0,3.2969,3.3049,3.3032,3.311,3.3145,3.3108,3.3147,3.3159,3.3156,3.3184,3.3179,3.3211,3.3171,3.3179,3.3211,3.3207,3.326,3.32,3.3238,3.3239,3.3235,3.3367,3.3391,3.3486,3.3323,3.3325,3.3326,0,3.31,3.3122,3.3204,3.321,3.3224,3.326,3.3284,3.3311,3.3323,3.3318,3.3334,3.3311,3.3355,3.3305,3.3364,3.3323,3.3338,3.3338,3.3341,3.3343,3.3288,3.3372,3.3515,3.3529,3.3346,3.3345,3.3343,0,3.3197,3.3247,3.3302,3.3312,3.3321,3.3347,3.3352,3.3361,3.3378,3.3398,3.3409,3.3434,3.3447,3.3466,3.345,3.3416,3.3512,3.3461,3.3507,3.3508,3.3529,3.3527,3.3676,3.354,3.354,3.354,3.3539,0,3.3313,3.3364,3.3346,3.3379,3.3435,3.3414,3.3469,3.347,3.3478,3.351,3.3479,3.351,3.3488,3.3516,3.3504,3.3554,3.356,3.3556,3.3552,3.3559,3.3559,3.3567,3.356,3.3543,3.3543,3.3542,3.3541,0,3.343,3.342,3.3477,3.3482,3.3484,3.3524,3.3527,3.3558,3.3552,3.3592,3.3601,3.3591,3.3623,3.3609,3.3642,3.3634,3.3698,3.3686,3.3694,3.3691,3.3738,3.3733,3.3896,3.3916,3.3768,3.377,3.3771,0,3.3504,3.3543,3.3551,3.3571,3.3578,3.361,3.3627,3.3608,3.3628,3.3644,3.3672,3.3701,3.3723,3.3775,3.377,3.3795,3.3782,3.3838,3.3786,3.3791,3.3782,3.3779,3.3782,3.3848,3.3849,3.3851,3.3852,0,3.3637,3.363,3.3657,3.3682,3.3704,3.3722,3.3738,3.3756,3.3737,3.376,3.3792,3.381,3.3843,3.3872,3.3894,3.3897,3.3871,3.3868,3.388,3.3887,3.389,3.3887,3.3721,3.3865,3.3863,3.3862,3.3862,3.3861,3.3734,3.3766,3.3776,3.3807,3.3817,3.3832,3.3861,3.3858,3.3885,3.3912,3.3898,3.3936,3.3945,3.3972,3.3979,3.4007,3.3985,3.4002,3.4007,3.4011,3.4017,3.3886,3.401,3.401,3.401,3.4009,3.4009,0,3.3863,3.3868,3.3897,3.392,3.3944,3.3918,3.3934,3.3955,3.3988,3.4,3.4022,3.4059,3.4086,3.4084,3.4108,3.4131,3.412,3.4138,3.4136,3.4137,3.4035,3.4022,3.4147,3.4147,3.4147,3.4147,3.4147,3.4147,3.3934,3.3986,3.398,3.4036,3.404,3.4077,3.4088,3.4101,3.411,3.4152,3.4175,3.4173,3.4179,3.4204,3.4227,3.4226,3.4236,3.4259,3.4253,3.4158,3.4144,3.4131,3.4118,3.4261,3.4261,3.4351,3.4352,3.4353]}]]